• In Österreich
  • Länderverzeichnis
  • Für 7 Tage
  • Wassertemperatur
  • Satellitenkarten
  • Wetterkarte
  • News
  • Widgets
  • user-avatar
    Anmelden

    Stündliche Wetter Boma

    Heute, 24 Februar, Samstag

    Zeit Temperatur Niederschläge Wind Luftdruck Luftfeuchtigkeit
    00:00 +24°C° 0,3 mm 1 m/S 698 mmHg 83%
    01:00 +24°C° 0,3 mm 1 m/S 698 mmHg 86%
    02:00 +21°C° 0 mm 0 m/S 698 mmHg 87%
    03:00 +21°C° 0 mm 0 m/S 698 mmHg 89%
    04:00 +21°C° 0 mm 0 m/S 697 mmHg 91%
    05:00 +21°C° 0 mm 0 m/S 698 mmHg 90%
    06:00 +21°C° 0 mm 0 m/S 698 mmHg 90%
    07:00 +21°C° 0 mm 0 m/S 698 mmHg 90%
    08:00 +25°C° 0 mm 0 m/S 699 mmHg 74%
    09:00 +29°C° 0 mm 0 m/S 700 mmHg 59%
    10:00 +32°C° 0 mm 0 m/S 700 mmHg 44%
    11:00 +36°C° 0 mm 1 m/S 700 mmHg 38%
    12:00 +37°C° 0 mm 1 m/S 699 mmHg 31%
    13:00 +39°C° 0 mm 2 m/S 698 mmHg 24%
    14:00 +39°C° 0 mm 2 m/S 698 mmHg 24%
    15:00 +39°C° 0 mm 2 m/S 697 mmHg 24%
    16:00 +39°C° 0 mm 1 m/S 696 mmHg 24%
    17:00 +35°C° 0 mm 1 m/S 696 mmHg 29%
    18:00 +33°C° 0 mm 1 m/S 696 mmHg 35%
    19:00 +28°C° 0 mm 0 m/S 696 mmHg 40%
    20:00 +30°C° 0 mm 1 m/S 697 mmHg 43%
    21:00 +29°C° 0 mm 1 m/S 698 mmHg 46%
    22:00 +28°C° 0 mm 1 m/S 698 mmHg 49%
    23:00 +27°C° 0,3 mm 1 m/S 698 mmHg 56%

    Morgen, 25 Februar, Sonntag

    Zeit Temperatur Niederschläge Wind Luftdruck Luftfeuchtigkeit
    00:00 +27°C° 0,3 mm 1 m/S 698 mmHg 64%
    01:00 +26°C° 0,3 mm 1 m/S 698 mmHg 71%
    02:00 +25°C° 0 mm 1 m/S 698 mmHg 77%
    03:00 +25°C° 0 mm 1 m/S 698 mmHg 83%
    04:00 +24°C° 0 mm 1 m/S 698 mmHg 89%
    05:00 +24°C° 0 mm 1 m/S 699 mmHg 90%
    06:00 +24°C° 0 mm 1 m/S 699 mmHg 92%
    07:00 +23°C° 0 mm 1 m/S 699 mmHg 93%
    08:00 +26°C° 0 mm 1 m/S 700 mmHg 80%
    09:00 +29°C° 0 mm 1 m/S 701 mmHg 67%
    10:00 +32°C° 0 mm 1 m/S 701 mmHg 54%
    11:00 +34°C° 0 mm 1 m/S 701 mmHg 45%
    12:00 +36°C° 0 mm 1 m/S 700 mmHg 36%
    13:00 +40°C° 0 mm 1 m/S 700 mmHg 27%
    14:00 +39°C° 0 mm 1 m/S 699 mmHg 27%
    15:00 +39°C° 0 mm 1 m/S 698 mmHg 26%
    16:00 +37°C° 0 mm 1 m/S 697 mmHg 25%
    17:00 +35°C° 0 mm 1 m/S 697 mmHg 30%
    18:00 +32°C° 0 mm 1 m/S 696 mmHg 34%
    19:00 +30°C° 0 mm 1 m/S 696 mmHg 38%
    20:00 +29°C° 0 mm 1 m/S 697 mmHg 42%
    21:00 +28°C° 0 mm 1 m/S 698 mmHg 46%
    22:00 +27°C° 0 mm 1 m/S 698 mmHg 49%
    23:00 +26°C° 0,4 mm 1 m/S 698 mmHg 59%

    übermorgen, 26 Februar, Montag

    Zeit Temperatur Niederschläge Wind Luftdruck Luftfeuchtigkeit
    00:00 +26°C° 0,4 mm 2 m/S 698 mmHg 68%
    01:00 +25°C° 0,4 mm 2 m/S 698 mmHg 78%
    02:00 +25°C° 0,3 mm 2 m/S 698 mmHg 82%
    03:00 +24°C° 0,3 mm 2 m/S 698 mmHg 87%
    04:00 +24°C° 0,3 mm 2 m/S 698 mmHg 91%
    05:00 +24°C° 0 mm 2 m/S 699 mmHg 91%
    06:00 +24°C° 0 mm 2 m/S 699 mmHg 91%
    07:00 +24°C° 0 mm 1 m/S 699 mmHg 91%
    08:00 +26°C° 0 mm 2 m/S 700 mmHg 82%
    09:00 +27°C° 0 mm 2 m/S 701 mmHg 74%
    10:00 +29°C° 0 mm 2 m/S 701 mmHg 65%
    11:00 +31°C° 0 mm 1 m/S 701 mmHg 58%
    12:00 +32°C° 0 mm 1 m/S 700 mmHg 50%
    13:00 +34°C° 0 mm 1 m/S 699 mmHg 43%
    14:00 +34°C° 0 mm 1 m/S 699 mmHg 40%
    15:00 +35°C° 0 mm 1 m/S 698 mmHg 38%
    16:00 +35°C° 0 mm 1 m/S 697 mmHg 35%
    17:00 +33°C° 0 mm 1 m/S 697 mmHg 42%
    18:00 +31°C° 0 mm 1 m/S 697 mmHg 49%
    19:00 +28°C° 0 mm 1 m/S 698 mmHg 56%
    20:00 +27°C° 0,1 mm 1 m/S 698 mmHg 62%
    21:00 +27°C° 0,1 mm 1 m/S 699 mmHg 68%
    22:00 +26°C° 0,1 mm 1 m/S 699 mmHg 73%
    23:00 +25°C° 0 mm 1 m/S 699 mmHg 77%

    27 Februar, Dienstag

    Zeit Temperatur Niederschläge Wind Luftdruck Luftfeuchtigkeit
    00:00 +25°C° 0 mm 2 m/S 699 mmHg 81%
    01:00 +24°C° 0 mm 2 m/S 699 mmHg 85%
    02:00 +24°C° 0 mm 2 m/S 699 mmHg 86%
    03:00 +24°C° 0 mm 2 m/S 698 mmHg 87%
    04:00 +24°C° 0 mm 2 m/S 698 mmHg 89%
    05:00 +24°C° 0 mm 2 m/S 699 mmHg 88%
    06:00 +23°C° 0 mm 1 m/S 700 mmHg 88%
    07:00 +23°C° 0 mm 1 m/S 700 mmHg 87%
    08:00 +25°C° 0 mm 1 m/S 701 mmHg 80%
    09:00 +27°C° 0 mm 2 m/S 701 mmHg 72%
    10:00 +28°C° 0 mm 2 m/S 702 mmHg 64%
    11:00 +31°C° 0 mm 2 m/S 701 mmHg 55%
    12:00 +33°C° 0 mm 1 m/S 700 mmHg 47%
    13:00 +35°C° 0 mm 1 m/S 699 mmHg 38%
    14:00 +35°C° 0 mm 1 m/S 699 mmHg 38%
    15:00 +34°C° 0 mm 1 m/S 698 mmHg 39%
    16:00 +32°C° 0 mm 0 m/S 698 mmHg 39%
    17:00 +32°C° 0 mm 1 m/S 698 mmHg 44%
    18:00 +30°C° 0 mm 1 m/S 698 mmHg 49%
    19:00 +29°C° 0 mm 1 m/S 698 mmHg 55%
    20:00 +28°C° 0 mm 1 m/S 699 mmHg 59%
    21:00 +27°C° 0 mm 1 m/S 699 mmHg 64%
    22:00 +26°C° 0 mm 2 m/S 700 mmHg 68%
    23:00 +25°C° 0,2 mm 1 m/S 699 mmHg 75%

    28 Februar, Mittwoch

    Zeit Temperatur Niederschläge Wind Luftdruck Luftfeuchtigkeit
    00:00 +24°C° 0,2 mm 1 m/S 699 mmHg 83%
    01:00 +23°C° 0,2 mm 1 m/S 699 mmHg 90%
    02:00 +23°C° 0 mm 1 m/S 699 mmHg 91%
    03:00 +23°C° 0 mm 1 m/S 699 mmHg 92%
    04:00 +23°C° 0 mm 1 m/S 699 mmHg 93%
    05:00 +23°C° 0 mm 1 m/S 699 mmHg 92%
    06:00 +23°C° 0 mm 1 m/S 700 mmHg 91%
    07:00 +23°C° 0 mm 1 m/S 700 mmHg 90%
    08:00 +26°C° 0 mm 1 m/S 701 mmHg 78%
    09:00 +28°C° 0 mm 1 m/S 701 mmHg 65%
    10:00 +31°C° 0 mm 2 m/S 702 mmHg 53%
    11:00 +33°C° 0 mm 1 m/S 701 mmHg 46%
    12:00 +35°C° 0 mm 1 m/S 700 mmHg 38%
    13:00 +37°C° 0 mm 1 m/S 699 mmHg 31%
    14:00 +36°C° 0 mm 1 m/S 699 mmHg 33%
    15:00 +36°C° 0 mm 1 m/S 698 mmHg 34%
    16:00 +35°C° 0 mm 1 m/S 697 mmHg 36%
    17:00 +33°C° 0 mm 1 m/S 697 mmHg 42%
    18:00 +31°C° 0 mm 1 m/S 698 mmHg 48%
    19:00 +29°C° 0 mm 1 m/S 698 mmHg 54%
    20:00 +28°C° 0,1 mm 1 m/S 698 mmHg 59%
    21:00 +27°C° 0,1 mm 1 m/S 698 mmHg 63%
    22:00 +26°C° 0,1 mm 1 m/S 699 mmHg 68%
    23:00 +25°C° 0,8 mm 1 m/S 699 mmHg 75%

    1 März, Donnerstag

    Zeit Temperatur Niederschläge Wind Luftdruck Luftfeuchtigkeit
    00:00 +24°C° 0,8 mm 1 m/S 699 mmHg 82%
    01:00 +24°C° 0,8 mm 1 m/S 699 mmHg 88%
    02:00 +23°C° 0 mm 1 m/S 698 mmHg 91%
    03:00 +23°C° 0 mm 1 m/S 698 mmHg 93%
    04:00 +23°C° 0 mm 1 m/S 698 mmHg 96%
    05:00 +23°C° 0 mm 1 m/S 699 mmHg 95%
    06:00 +23°C° 0 mm 1 m/S 699 mmHg 93%
    07:00 +23°C° 0 mm 1 m/S 700 mmHg 92%
    08:00 +25°C° 0 mm 1 m/S 700 mmHg 85%
    09:00 +26°C° 0 mm 1 m/S 701 mmHg 77%
    10:00 +28°C° 0 mm 1 m/S 701 mmHg 69%
    11:00 +31°C° 0 mm 1 m/S 701 mmHg 58%
    12:00 +34°C° 0 mm 1 m/S 700 mmHg 46%
    13:00 +36°C° 0 mm 1 m/S 700 mmHg 34%
    14:00 +37°C° 0 mm 1 m/S 699 mmHg 32%
    15:00 +37°C° 0 mm 1 m/S 698 mmHg 30%
    16:00 +37°C° 0 mm 1 m/S 697 mmHg 28%
    17:00 +34°C° 0 mm 1 m/S 697 mmHg 34%
    18:00 +32°C° 0 mm 1 m/S 697 mmHg 41%
    19:00 +29°C° 0 mm 1 m/S 697 mmHg 48%
    20:00 +28°C° 0 mm 1 m/S 698 mmHg 53%
    21:00 +27°C° 0 mm 1 m/S 698 mmHg 59%
    22:00 +26°C° 0 mm 2 m/S 698 mmHg 64%
    23:00 +26°C° 0 mm 2 m/S 698 mmHg 68%
    Mehr zeigen